CST,Max TemperatureF,Mean TemperatureF,Min TemperatureF,Max Dew PointF,MeanDew PointF,Min DewpointF,Max Humidity, Mean Humidity, Min Humidity, Max Sea Level PressureIn, Mean Sea Level PressureIn, Min Sea Level PressureIn, Max VisibilityMiles, Mean VisibilityMiles, Min VisibilityMiles, Max Wind SpeedMPH, Mean Wind SpeedMPH, Max Gust SpeedMPH,PrecipitationIn, CloudCover, Events, WindDirDegrees
2013-11-1,65,52,39,39,35,31,76,52,28,30.12,29.91,29.75,10,10,10,37,11,44,T,3,,302
2013-11-2,62,49,36,32,30,25,76,51,25,30.30,30.20,30.11,10,10,10,15,8,39,0.00,0,,275
2013-11-3,66,56,45,37,34,30,58,45,32,30.08,29.87,29.72,10,10,10,40,23,55,0.00,1,,170
2013-11-4,64,57,50,42,39,37,74,56,37,30.07,29.91,29.71,10,10,10,28,13,43,0.00,1,,35
2013-11-5,61,50,39,57,48,34,93,76,59,30.10,29.95,29.80,10,8,2,29,14,35,0.35,8,Rain,129
2013-11-6,46,39,31,34,32,28,89,75,60,30.36,30.26,30.13,10,10,9,24,8,29,0.00,4,Snow,313
2013-11-7,59,44,29,36,32,26,89,65,40,30.48,30.40,30.29,10,10,10,13,4,15,0.00,0,,261
2013-11-8,70,52,34,34,32,29,89,56,23,30.26,29.97,29.80,10,10,10,39,18,51,0.00,0,,184
2013-11-9,67,51,35,36,33,31,82,54,26,30.32,30.15,29.96,10,10,4,14,4,17,0.00,0,,98
2013-11-10,64,51,37,47,38,32,86,63,40,30.41,30.30,30.20,10,10,9,20,8,24,0.00,2,,152
2013-11-11,53,41,28,49,38,14,93,71,49,30.75,30.31,30.16,10,4,0,26,13,32,T,6,Fog-Rain-Snow,352
2013-11-12,37,27,16,14,10,4,80,53,26,30.96,30.83,30.70,10,10,10,25,7,32,T,0,,31
2013-11-13,55,38,21,26,19,14,71,50,28,30.67,30.37,30.09,10,10,10,26,15,33,0.00,0,,184
2013-11-14,58,46,34,30,24,16,75,53,30,30.07,29.98,29.93,10,10,10,22,11,29,0.00,0,,192
2013-11-15,61,45,28,45,35,25,92,67,42,29.93,29.79,29.59,10,10,8,22,11,32,0.00,0,,174
2013-11-16,74,62,49,49,42,28,77,51,24,29.55,29.40,29.28,10,10,10,32,16,40,0.00,1,,192
2013-11-17,64,49,33,36,26,12,65,39,13,30.15,29.74,29.28,10,10,10,36,19,50,0.00,0,,285
2013-11-18,61,44,27,30,23,18,85,52,19,30.32,30.23,30.12,10,10,10,13,5,16,0.00,0,,188
2013-11-19,64,47,30,33,26,22,72,49,25,30.21,29.99,29.83,10,10,10,33,15,41,0.00,0,,166
2013-11-20,67,58,48,47,37,26,83,58,32,29.89,29.81,29.73,10,10,10,26,12,37,0.00,1,,178
2013-11-21,51,38,24,45,28,17,86,80,74,30.61,30.23,29.90,10,7,2,30,19,37,0.04,7,Rain-Snow,352
2013-11-22,30,25,19,19,15,11,81,64,47,30.76,30.68,30.58,10,10,10,26,12,31,T,2,,340
2013-11-23,31,26,20,20,14,7,69,58,46,30.86,30.78,30.69,10,10,10,18,9,22,0.00,0,,27
2013-11-24,30,23,15,15,9,5,80,56,32,30.78,30.55,30.30,10,10,10,17,8,22,0.00,4,,170
2013-11-25,40,32,23,27,21,14,88,71,53,30.28,30.24,30.18,10,10,9,17,8,21,T,5,,245
2013-11-26,40,28,16,23,15,7,81,54,27,30.51,30.39,30.28,10,10,9,29,13,33,0.00,1,Snow,334
2013-11-27,41,25,9,19,11,4,80,56,32,30.51,30.35,30.14,10,10,9,21,9,25,0.00,0,Snow,189
2013-11-28,41,31,21,23,20,16,84,66,48,30.49,30.36,30.14,10,10,10,13,6,17,0.00,0,,35
2013-11-29,57,39,20,30,24,15,81,58,35,30.48,30.32,30.16,10,10,9,25,8,32,0.00,0,,161
2013-11-30,59,42,24,33,28,22,84,59,33,30.17,30.13,30.09,10,10,9,13,3,14,0.00,0,,222